Home   Weather   Bad Kreuznach   Past weeks

Flag for Germany Past Weather in Bad Kreuznach, Rhineland-Palatinate, Germany — Yesterday and Last 2 Weeks

Now
38 °F

Passing clouds.


Feels Like: 38 °F
Forecast: 35 / 45 °F
Wind: No wind

Location: Wiesbaden Airport

Current Time: Dec 11, 2016 at 3:34:52 am

Latest Report: Dec 11, 2016 at 2:58 am


Visibility: N/A

Pressure: 30.14 "Hg

Humidity: 91%

Dew Point: 36 °F

Location of Bad KreuznachLocation

Past Weather in Bad Kreuznach — Graph

°F

Bad Kreuznach Temperature Yesterday

Maximum temperature yesterday: 44 °F (at 3:58 pm)
Minimum temperature yesterday: 30 °F (at 5:58 am)
Average temperature yesterday: 35 °F

High & Low Weather Summary for the Past Weeks

 TemperatureHumidityPressure
High48 °F (Dec 2, 1:58 pm)100% (Dec 6, 1:58 am)30.62 "Hg (Dec 6, 1:58 am)
Low22 °F (Nov 30, 6:58 am)49% (Nov 28, 3:58 pm)30.06 "Hg (Nov 26, 2:58 pm)
Average34 °F84%30.39 "Hg
* Reported Nov 26 1:58 am — Dec 11 1:58 am, Bad Kreuznach, Weather by CustomWeather, © 2016

Note: Actual official high and low records may vary slightly from our data, if they occured in-between our weather recording intervals... More about our weather records

Advertising

Bad Kreuznach Weather History for the Previous 24 Hours

Scroll right to see more
 ConditionsComfort  
Time TempWeatherWind HumidityBarometerVisibility
1:58 am
Sun, Dec 11
39 °FMostly cloudy.No wind90%30.15 "HgN/A
12:58 am39 °FMostly cloudy.No wind93%30.18 "HgN/A
12:04 am39 °FOvercast.No wind87%30.18 "HgN/A
11:58 pm
Sat, Dec 10
39 °FOvercast.No wind87%30.21 "HgN/A
10:58 pm39 °FOvercast.No wind87%30.23 "HgN/A
9:58 pm38 °FOvercast.No wind93%30.25 "HgN/A
8:58 pm35 °FFog.No wind95%30.26 "Hg6 mi
7:58 pm35 °FFog.No wind94%30.27 "Hg5 mi
6:58 pm34 °FOvercast.No wind100%30.28 "HgN/A
5:58 pm36 °FMostly cloudy.No wind93%30.29 "HgN/A
4:58 pm41 °FClear.No wind84%30.29 "HgN/A
3:58 pm44 °FSunny.No wind79%30.28 "HgN/A
2:58 pm43 °FSunny.No wind81%30.29 "HgN/A
1:58 pm41 °FSunny.No wind88%30.31 "HgN/A
12:58 pm41 °FQuite cool.No wind87%30.32 "HgN/A
10:58 am30 °FIce fog.No wind93%30.35 "Hg2 mi
9:58 am30 °FIce fog.No wind93%30.35 "Hg2 mi
8:58 am30 °FIce fog.No wind93%30.35 "Hg1 mi
7:58 am30 °FIce fog.No wind93%30.35 "Hg2 mi
6:58 am30 °FIce fog.No wind93%30.35 "Hg2 mi
5:58 am30 °FIce fog.No wind93%30.35 "Hg2 mi
5:04 am32 °FIce fog.No wind100%30.33 "Hg2 mi
4:55 am32 °FIce fog.No wind100%30.33 "Hg1 mi
4:48 am32 °FIce fog.No wind100%30.33 "Hg2 mi
3:58 am33 °FFog.No wind97%30.36 "Hg4 mi
Weather by CustomWeather, © 2016

See weather overviewHow to use our weather pages